sat.trackr.live / text

‹ back to catalog

STRIX-7

NORAD 69177 · 2026-112A

PAYLOAD ACTIVE UNKNOWN

§ Identity

Operator
Country
JPN
Launch date
2026-05-22
Launch site
RLLB
Launch vehicle
Mass (kg)
RCS (m²)

External: N2YO · Heavens-Above · Gunter

§ Orbital elements

Epoch: 2026-05-22T19:42:37.871424Z

Period
95.89 min
Inclination
44.9091°
Eccentricity
0.0027123
Mean motion
15.01794608 rev/d
Perigee alt
542.5 km
Apogee alt
580.2 km
Semi-major
6,939.5 km
B*
2.9927e-5
RAAN
325.6494°
Arg perigee
267.7288°
Mean anomaly
92.0478°
Rev number
6

§ Raw data

STRIX-71 69177U 26112A   26142.82127166  .00000163  00000+0  29927-4 0  99922 69177  44.9091 325.6494 0027123 267.7288  92.0478 15.01794608    64

JSON: /api/v1/satellites/69177 · /tle

For live sub-satellite position, see the globe view (requires WebGL).

§ Visibility from observer

Set your observer location to see the next 7 days of passes ≥ 10°. The values pass through the URL so the page stays shareable.

No JS? Fill the form by hand. The geolocation button needs JavaScript.